Time,TemperatureF,DewpointF,PressureIn,WindDirection,WindDirectionDegrees,WindSpeedMPH,WindSpeedGustMPH,Humidity,HourlyPrecipIn,Conditions,Clouds,dailyrainin,SoftwareType,DateUTC
2013-02-23 00:03:00,51.4,47.0,30.00,NW,305,1.0,3.0,85,0.00,,,0.00,Wunderground v.1.15,2013-02-23 06:03:00,
2013-02-23 00:09:00,51.5,47.1,30.00,North,10,1.0,3.0,85,0.00,,,0.00,Wunderground v.1.15,2013-02-23 06:09:00,
2013-02-23 00:14:00,51.5,47.5,29.99,NNE,26,1.0,3.0,86,0.00,,,0.00,Wunderground v.1.15,2013-02-23 06:14:00,
2013-02-23 00:20:00,51.4,47.4,29.99,NE,50,1.0,2.0,86,0.00,,,0.00,Wunderground v.1.15,2013-02-23 06:20:00,
2013-02-23 00:25:00,51.3,47.3,30.00,WNW,297,1.0,2.0,86,0.00,,,0.00,Wunderground v.1.15,2013-02-23 06:25:00,
2013-02-23 00:30:00,51.3,47.3,30.00,WNW,293,1.0,2.0,86,0.00,,,0.00,Wunderground v.1.15,2013-02-23 06:30:00,
2013-02-23 00:36:00,51.3,47.3,30.00,North,6,1.0,3.0,86,0.00,,,0.00,Wunderground v.1.15,2013-02-23 06:36:00,
2013-02-23 00:41:00,51.3,47.3,30.00,NNW,340,1.0,2.0,86,0.00,,,0.00,Wunderground v.1.15,2013-02-23 06:41:00,
2013-02-23 00:47:00,51.2,47.2,30.00,NE,39,1.0,1.0,86,0.00,,,0.00,Wunderground v.1.15,2013-02-23 06:47:00,
2013-02-23 00:52:00,51.2,47.2,30.00,North,356,1.0,2.0,86,0.00,,,0.00,Wunderground v.1.15,2013-02-23 06:52:00,
2013-02-23 00:57:00,51.2,47.2,30.01,NW,319,1.0,2.0,86,0.00,,,0.00,Wunderground v.1.15,2013-02-23 06:57:00,
2013-02-23 01:03:00,51.1,47.1,30.01,NE,39,1.0,2.0,86,0.00,,,0.00,Wunderground v.1.15,2013-02-23 07:03:00,
2013-02-23 01:08:00,51.0,47.3,30.00,NNE,32,1.0,2.0,87,0.00,,,0.00,Wunderground v.1.15,2013-02-23 07:08:00,
2013-02-23 01:13:00,50.8,47.1,30.00,North,9,1.0,2.0,87,0.00,,,0.00,Wunderground v.1.15,2013-02-23 07:13:00,
2013-02-23 01:18:00,50.6,46.9,30.00,NNE,20,1.0,2.0,87,0.00,,,0.00,Wunderground v.1.15,2013-02-23 07:18:00,
2013-02-23 01:24:00,50.5,46.8,30.00,NNW,340,1.0,2.0,87,0.00,,,0.00,Wunderground v.1.15,2013-02-23 07:24:00,
2013-02-23 01:29:00,50.3,46.6,30.00,North,4,1.0,2.0,87,0.00,,,0.00,Wunderground v.1.15,2013-02-23 07:29:00,
2013-02-23 01:35:00,50.2,46.5,30.00,East,90,1.0,2.0,87,0.00,,,0.00,Wunderground v.1.15,2013-02-23 07:35:00,
2013-02-23 01:40:00,50.1,46.4,30.00,SSE,156,1.0,2.0,87,0.00,,,0.00,Wunderground v.1.15,2013-02-23 07:40:00,
2013-02-23 01:45:00,49.9,46.2,30.00,North,353,1.0,2.0,87,0.00,,,0.00,Wunderground v.1.15,2013-02-23 07:45:00,
2013-02-23 01:51:00,49.9,46.2,30.00,NNE,14,1.0,2.0,87,0.00,,,0.00,Wunderground v.1.15,2013-02-23 07:51:00,
2013-02-23 01:56:00,49.7,46.0,29.99,NNE,25,1.0,2.0,87,0.00,,,0.00,Wunderground v.1.15,2013-02-23 07:56:00,
2013-02-23 02:01:00,49.7,46.3,29.99,NE,56,1.0,5.0,88,0.00,,,0.00,Wunderground v.1.15,2013-02-23 08:01:00,
2013-02-23 02:07:00,49.6,46.2,29.98,NE,37,1.0,2.0,88,0.00,,,0.00,Wunderground v.1.15,2013-02-23 08:07:00,
2013-02-23 02:12:00,49.5,46.1,29.98,North,10,1.0,3.0,88,0.00,,,0.00,Wunderground v.1.15,2013-02-23 08:12:00,
2013-02-23 02:17:00,49.4,46.0,29.97,NE,43,1.0,2.0,88,0.00,,,0.00,Wunderground v.1.15,2013-02-23 08:17:00,
2013-02-23 02:23:00,49.3,45.9,29.98,NNE,20,2.0,3.0,88,0.00,,,0.00,Wunderground v.1.15,2013-02-23 08:23:00,
2013-02-23 02:28:00,49.3,45.9,29.98,NW,323,1.0,2.0,88,0.00,,,0.00,Wunderground v.1.15,2013-02-23 08:28:00,
2013-02-23 02:33:00,49.2,45.8,29.98,NNW,340,1.0,2.0,88,0.00,,,0.00,Wunderground v.1.15,2013-02-23 08:33:00,
2013-02-23 02:39:00,49.1,45.7,29.97,NNW,348,1.0,2.0,88,0.00,,,0.00,Wunderground v.1.15,2013-02-23 08:39:00,
2013-02-23 02:44:00,49.1,45.7,29.97,WNW,285,2.0,3.0,88,0.00,,,0.00,Wunderground v.1.15,2013-02-23 08:44:00,
2013-02-23 02:50:00,49.1,45.7,29.98,NW,307,1.0,2.0,88,0.00,,,0.00,Wunderground v.1.15,2013-02-23 08:50:00,
2013-02-23 02:55:00,49.0,45.6,29.98,NNW,343,1.0,2.0,88,0.00,,,0.00,Wunderground v.1.15,2013-02-23 08:55:00,
2013-02-23 03:00:00,49.0,45.6,29.97,NE,53,1.0,4.0,88,0.00,,,0.00,Wunderground v.1.15,2013-02-23 09:00:00,
2013-02-23 03:06:00,48.9,45.5,29.97,East,81,1.0,4.0,88,0.00,,,0.00,Wunderground v.1.15,2013-02-23 09:06:00,
2013-02-23 03:11:00,48.8,45.4,29.98,NW,318,1.0,2.0,88,0.00,,,0.00,Wunderground v.1.15,2013-02-23 09:11:00,
2013-02-23 03:17:00,48.8,45.4,29.98,NNE,22,1.0,2.0,88,0.00,,,0.00,Wunderground v.1.15,2013-02-23 09:17:00,
2013-02-23 03:22:00,48.8,45.4,29.97,ENE,72,1.0,3.0,88,0.00,,,0.00,Wunderground v.1.15,2013-02-23 09:22:00,
2013-02-23 03:28:00,48.7,45.3,29.97,ENE,63,2.0,3.0,88,0.00,,,0.00,Wunderground v.1.15,2013-02-23 09:28:00,
2013-02-23 03:34:00,48.6,45.2,29.97,NNW,348,1.0,3.0,88,0.00,,,0.00,Wunderground v.1.15,2013-02-23 09:34:00,
2013-02-23 03:39:00,48.6,45.2,29.97,NE,56,1.0,2.0,88,0.00,,,0.00,Wunderground v.1.15,2013-02-23 09:39:00,
2013-02-23 03:45:00,48.5,45.1,29.96,NE,34,1.0,2.0,88,0.00,,,0.00,Wunderground v.1.15,2013-02-23 09:45:00,
2013-02-23 03:50:00,48.4,45.0,29.95,NNE,30,2.0,3.0,88,0.00,,,0.00,Wunderground v.1.15,2013-02-23 09:50:00,
2013-02-23 03:56:00,48.4,45.0,29.96,NW,311,2.0,4.0,88,0.00,,,0.00,Wunderground v.1.15,2013-02-23 09:56:00,
2013-02-23 04:01:00,48.3,44.9,29.96,ENE,60,1.0,3.0,88,0.00,,,0.00,Wunderground v.1.15,2013-02-23 10:01:00,
2013-02-23 04:06:00,48.2,44.8,29.96,NE,35,1.0,2.0,88,0.00,,,0.00,Wunderground v.1.15,2013-02-23 10:06:00,
2013-02-23 04:12:00,48.1,44.7,29.95,NNE,24,2.0,6.0,88,0.00,,,0.00,Wunderground v.1.15,2013-02-23 10:12:00,
2013-02-23 04:18:00,48.0,44.6,29.95,NE,43,2.0,4.0,88,0.00,,,0.00,Wunderground v.1.15,2013-02-23 10:18:00,
2013-02-23 04:24:00,47.9,44.8,29.95,NE,34,1.0,4.0,89,0.00,,,0.00,Wunderground v.1.15,2013-02-23 10:24:00,
2013-02-23 04:29:00,47.9,44.8,29.95,NNE,18,2.0,2.0,89,0.00,,,0.00,Wunderground v.1.15,2013-02-23 10:29:00,
2013-02-23 04:34:00,47.9,44.8,29.94,NNE,25,3.0,6.0,89,0.00,,,0.00,Wunderground v.1.15,2013-02-23 10:34:00,
2013-02-23 04:40:00,47.7,44.6,29.94,ENE,68,2.0,3.0,89,0.00,,,0.00,Wunderground v.1.15,2013-02-23 10:40:00,
2013-02-23 04:45:00,47.6,44.5,29.94,NE,51,2.0,4.0,89,0.00,,,0.00,Wunderground v.1.15,2013-02-23 10:45:00,
2013-02-23 04:51:00,47.5,44.4,29.94,NE,34,3.0,5.0,89,0.00,,,0.00,Wunderground v.1.15,2013-02-23 10:51:00,
2013-02-23 04:56:00,47.4,44.3,29.94,NE,43,3.0,5.0,89,0.00,,,0.00,Wunderground v.1.15,2013-02-23 10:56:00,
2013-02-23 05:01:00,47.3,43.9,29.94,NE,52,2.0,8.0,88,0.00,,,0.00,Wunderground v.1.15,2013-02-23 11:01:00,
2013-02-23 05:07:00,47.2,44.1,29.94,NE,43,2.0,2.0,89,0.00,,,0.00,Wunderground v.1.15,2013-02-23 11:07:00,
2013-02-23 05:12:00,47.1,44.0,29.94,ENE,60,2.0,4.0,89,0.00,,,0.00,Wunderground v.1.15,2013-02-23 11:12:00,
2013-02-23 05:17:00,47.0,43.6,29.94,NE,47,2.0,2.0,88,0.00,,,0.00,Wunderground v.1.15,2013-02-23 11:17:00,
2013-02-23 05:22:00,46.9,43.5,29.95,NNW,347,2.0,5.0,88,0.00,,,0.00,Wunderground v.1.15,2013-02-23 11:22:00,
2013-02-23 05:28:00,46.8,43.4,29.95,ENE,62,2.0,3.0,88,0.00,,,0.00,Wunderground v.1.15,2013-02-23 11:28:00,
2013-02-23 05:33:00,46.8,43.1,29.95,NE,41,2.0,4.0,87,0.00,,,0.00,Wunderground v.1.15,2013-02-23 11:33:00,
2013-02-23 05:38:00,46.7,43.0,29.95,NE,47,2.0,2.0,87,0.00,,,0.00,Wunderground v.1.15,2013-02-23 11:38:00,
2013-02-23 05:44:00,46.6,42.9,29.96,NNE,25,1.0,5.0,87,0.00,,,0.00,Wunderground v.1.15,2013-02-23 11:44:00,
2013-02-23 05:49:00,46.5,42.8,29.97,North,358,1.0,2.0,87,0.00,,,0.00,Wunderground v.1.15,2013-02-23 11:49:00,
2013-02-23 05:55:00,46.2,42.8,29.97,North,358,0.0,2.0,88,0.00,,,0.00,Wunderground v.1.15,2013-02-23 11:55:00,
2013-02-23 06:00:00,46.0,42.6,29.97,ENE,68,0.0,2.0,88,0.00,,,0.00,Wunderground v.1.15,2013-02-23 12:00:00,
2013-02-23 06:06:00,45.9,42.5,29.98,North,1,1.0,2.0,88,0.00,,,0.00,Wunderground v.1.15,2013-02-23 12:06:00,
2013-02-23 06:11:00,45.8,42.4,29.98,ENE,65,1.0,2.0,88,0.00,,,0.00,Wunderground v.1.15,2013-02-23 12:11:00,
2013-02-23 06:16:00,45.7,42.1,29.98,North,1,1.0,2.0,87,0.00,,,0.00,Wunderground v.1.15,2013-02-23 12:16:00,
2013-02-23 06:21:00,45.7,42.1,29.98,NE,52,1.0,2.0,87,0.00,,,0.00,Wunderground v.1.15,2013-02-23 12:21:00,
2013-02-23 06:27:00,45.6,42.0,29.99,NE,44,1.0,1.0,87,0.00,,,0.00,Wunderground v.1.15,2013-02-23 12:27:00,
2013-02-23 06:32:00,45.5,41.9,29.99,NE,52,1.0,5.0,87,0.00,,,0.00,Wunderground v.1.15,2013-02-23 12:32:00,
2013-02-23 06:38:00,45.5,41.9,30.00,North,5,1.0,2.0,87,0.00,,,0.00,Wunderground v.1.15,2013-02-23 12:38:00,
2013-02-23 06:44:00,45.5,41.6,30.00,NE,54,1.0,2.0,86,0.00,,,0.00,Wunderground v.1.15,2013-02-23 12:44:00,
2013-02-23 06:50:00,45.5,41.6,30.00,NE,43,1.0,2.0,86,0.00,,,0.00,Wunderground v.1.15,2013-02-23 12:50:00,
2013-02-23 06:55:00,45.4,41.5,30.00,NE,53,0.0,2.0,86,0.00,,,0.00,Wunderground v.1.15,2013-02-23 12:55:00,
2013-02-23 07:00:00,45.4,41.8,30.01,NE,49,0.0,2.0,87,0.00,,,0.00,Wunderground v.1.15,2013-02-23 13:00:00,
2013-02-23 07:05:00,45.5,41.9,30.01,NE,44,0.0,2.0,87,0.00,,,0.00,Wunderground v.1.15,2013-02-23 13:05:00,
2013-02-23 07:11:00,45.7,42.1,30.02,WNW,291,0.0,2.0,87,0.00,,,0.00,Wunderground v.1.15,2013-02-23 13:11:00,
2013-02-23 07:17:00,46.1,42.1,30.02,NNE,12,1.0,1.0,86,0.00,,,0.00,Wunderground v.1.15,2013-02-23 13:17:00,
2013-02-23 07:22:00,46.5,42.5,30.02,NE,47,1.0,2.0,86,0.00,,,0.00,Wunderground v.1.15,2013-02-23 13:22:00,
2013-02-23 07:28:00,47.0,42.7,30.02,NE,43,1.0,2.0,85,0.00,,,0.00,Wunderground v.1.15,2013-02-23 13:28:00,
2013-02-23 07:34:00,47.1,42.5,30.02,NE,46,1.0,2.0,84,0.00,,,0.00,Wunderground v.1.15,2013-02-23 13:34:00,
2013-02-23 07:39:00,47.4,43.1,30.02,NE,53,1.0,4.0,85,0.00,,,0.00,Wunderground v.1.15,2013-02-23 13:39:00,
2013-02-23 07:45:00,47.3,42.7,30.02,NNE,23,1.0,5.0,84,0.00,,,0.00,Wunderground v.1.15,2013-02-23 13:45:00,
2013-02-23 07:50:00,47.3,42.7,30.02,North,11,1.0,3.0,84,0.00,,,0.00,Wunderground v.1.15,2013-02-23 13:50:00,
2013-02-23 07:55:00,47.4,42.8,30.01,NNE,18,1.0,3.0,84,0.00,,,0.00,Wunderground v.1.15,2013-02-23 13:55:00,
2013-02-23 08:00:00,47.6,43.0,30.02,North,9,2.0,5.0,84,0.00,,,0.00,Wunderground v.1.15,2013-02-23 14:00:00,
2013-02-23 08:06:00,48.0,43.4,30.02,NE,56,2.0,5.0,84,0.00,,,0.00,Wunderground v.1.15,2013-02-23 14:06:00,
2013-02-23 14:06:00,62.8,48.3,29.92,ENE,57,2.0,5.0,59,0.00,,,0.00,Wunderground v.1.15,2013-02-23 20:06:00,
2013-02-23 14:11:00,62.5,48.4,29.93,NE,47,3.0,5.0,60,0.00,,,0.00,Wunderground v.1.15,2013-02-23 20:11:00,
2013-02-23 14:17:00,62.3,47.8,29.92,ENE,70,4.0,6.0,59,0.00,,,0.00,Wunderground v.1.15,2013-02-23 20:17:00,
2013-02-23 14:23:00,61.4,47.8,29.92,NE,41,4.0,6.0,61,0.00,,,0.00,Wunderground v.1.15,2013-02-23 20:23:00,
2013-02-23 14:28:00,61.6,48.0,29.92,NE,41,2.0,3.0,61,0.00,,,0.00,Wunderground v.1.15,2013-02-23 20:28:00,
2013-02-23 14:33:00,62.2,48.1,29.92,ESE,113,2.0,4.0,60,0.00,,,0.00,Wunderground v.1.15,2013-02-23 20:33:00,
2013-02-23 14:39:00,62.7,47.7,29.93,NE,49,3.0,6.0,58,0.00,,,0.00,Wunderground v.1.15,2013-02-23 20:39:00,
2013-02-23 14:45:00,62.9,47.9,29.92,ESE,120,3.0,6.0,58,0.00,,,0.00,Wunderground v.1.15,2013-02-23 20:45:00,
2013-02-23 14:50:00,63.3,48.7,29.92,NE,41,2.0,4.0,59,0.00,,,0.00,Wunderground v.1.15,2013-02-23 20:50:00,
2013-02-23 14:56:00,63.4,47.4,29.92,East,89,3.0,4.0,56,0.00,,,0.00,Wunderground v.1.15,2013-02-23 20:56:00,
2013-02-23 15:02:00,63.3,47.3,29.92,NE,50,3.0,4.0,56,0.00,,,0.00,Wunderground v.1.15,2013-02-23 21:02:00,
2013-02-23 15:07:00,63.8,48.3,29.92,NNE,18,1.0,3.0,57,0.00,,,0.00,Wunderground v.1.15,2013-02-23 21:07:00,
2013-02-23 15:13:00,64.0,46.5,29.92,NW,321,1.0,3.0,53,0.00,,,0.00,Wunderground v.1.15,2013-02-23 21:13:00,
2013-02-23 15:18:00,64.1,47.1,29.92,East,79,2.0,2.0,54,0.00,,,0.00,Wunderground v.1.15,2013-02-23 21:18:00,
2013-02-23 15:23:00,64.0,48.0,29.92,SE,134,2.0,3.0,56,0.00,,,0.00,Wunderground v.1.15,2013-02-23 21:23:00,
2013-02-23 15:29:00,64.0,47.5,29.92,ENE,66,2.0,3.0,55,0.00,,,0.00,Wunderground v.1.15,2013-02-23 21:29:00,
2013-02-23 15:34:00,64.5,47.5,29.92,ESE,104,2.0,3.0,54,0.00,,,0.00,Wunderground v.1.15,2013-02-23 21:34:00,
2013-02-23 15:40:00,63.8,47.8,29.91,NE,56,2.0,3.0,56,0.00,,,0.00,Wunderground v.1.15,2013-02-23 21:40:00,
2013-02-23 15:45:00,64.1,48.5,29.91,North,1,2.0,3.0,57,0.00,,,0.00,Wunderground v.1.15,2013-02-23 21:45:00,
2013-02-23 15:50:00,64.4,48.4,29.92,West,280,1.0,2.0,56,0.00,,,0.00,Wunderground v.1.15,2013-02-23 21:50:00,
2013-02-23 15:56:00,64.3,47.8,29.92,WNW,297,1.0,2.0,55,0.00,,,0.00,Wunderground v.1.15,2013-02-23 21:56:00,
2013-02-23 16:01:00,64.4,48.4,29.91,WNW,301,1.0,2.0,56,0.00,,,0.00,Wunderground v.1.15,2013-02-23 22:01:00,
2013-02-23 16:07:00,64.7,48.2,29.92,ENE,61,1.0,4.0,55,0.00,,,0.00,Wunderground v.1.15,2013-02-23 22:07:00,
2013-02-23 16:13:00,64.6,48.5,29.91,NE,49,2.0,4.0,56,0.00,,,0.00,Wunderground v.1.15,2013-02-23 22:13:00,
2013-02-23 16:18:00,64.8,47.8,29.91,NNE,18,1.0,2.0,54,0.00,,,0.00,Wunderground v.1.15,2013-02-23 22:18:00,
2013-02-23 16:23:00,64.5,48.4,29.91,WSW,255,1.0,2.0,56,0.00,,,0.00,Wunderground v.1.15,2013-02-23 22:23:00,
2013-02-23 16:28:00,64.6,48.5,29.91,WNW,302,1.0,4.0,56,0.00,,,0.00,Wunderground v.1.15,2013-02-23 22:28:00,
2013-02-23 16:34:00,64.6,49.5,29.91,NW,305,1.0,4.0,58,0.00,,,0.00,Wunderground v.1.15,2013-02-23 22:34:00,
2013-02-23 16:39:00,64.5,48.9,29.91,NNE,20,1.0,2.0,57,0.00,,,0.00,Wunderground v.1.15,2013-02-23 22:39:00,
2013-02-23 16:45:00,64.2,48.6,29.91,NNW,339,1.0,4.0,57,0.00,,,0.00,Wunderground v.1.15,2013-02-23 22:45:00,
2013-02-23 16:50:00,63.7,48.2,29.91,West,269,2.0,4.0,57,0.00,,,0.00,Wunderground v.1.15,2013-02-23 22:50:00,
2013-02-23 16:55:00,63.2,48.2,29.91,WNW,283,2.0,4.0,58,0.00,,,0.00,Wunderground v.1.15,2013-02-23 22:55:00,
2013-02-23 17:01:00,63.0,48.0,29.91,North,8,2.0,3.0,58,0.00,,,0.00,Wunderground v.1.15,2013-02-23 23:01:00,
2013-02-23 17:06:00,62.8,47.8,29.91,NNE,12,1.0,2.0,58,0.00,,,0.00,Wunderground v.1.15,2013-02-23 23:06:00,
2013-02-23 17:12:00,62.4,47.4,29.91,NW,306,1.0,3.0,58,0.00,,,0.00,Wunderground v.1.15,2013-02-23 23:12:00,
2013-02-23 17:17:00,62.1,46.7,29.92,West,263,1.0,3.0,57,0.00,,,0.00,Wunderground v.1.15,2013-02-23 23:17:00,
2013-02-23 17:22:00,61.8,47.3,29.92,WNW,287,1.0,3.0,59,0.00,,,0.00,Wunderground v.1.15,2013-02-23 23:22:00,
2013-02-23 17:28:00,61.6,46.2,29.92,North,349,1.0,2.0,57,0.00,,,0.00,Wunderground v.1.15,2013-02-23 23:28:00,
2013-02-23 17:33:00,61.4,46.5,29.92,WNW,290,1.0,2.0,58,0.00,,,0.00,Wunderground v.1.15,2013-02-23 23:33:00,
2013-02-23 17:39:00,61.1,46.7,29.92,NW,323,0.0,2.0,59,0.00,,,0.00,Wunderground v.1.15,2013-02-23 23:39:00,
2013-02-23 17:44:00,60.8,46.4,29.93,West,280,0.0,2.0,59,0.00,,,0.00,Wunderground v.1.15,2013-02-23 23:44:00,
2013-02-23 17:49:00,60.4,45.5,29.93,NE,53,0.0,2.0,58,0.00,,,0.00,Wunderground v.1.15,2013-02-23 23:49:00,
2013-02-23 17:55:00,60.0,46.1,29.93,North,10,1.0,2.0,60,0.00,,,0.00,Wunderground v.1.15,2013-02-23 23:55:00,
2013-02-23 18:00:00,59.9,46.0,29.92,ENE,68,1.0,2.0,60,0.00,,,0.00,Wunderground v.1.15,2013-02-24 00:00:00,
2013-02-23 18:05:00,59.7,45.8,29.92,NE,46,1.0,2.0,60,0.00,,,0.00,Wunderground v.1.15,2013-02-24 00:05:00,
2013-02-23 18:11:00,59.3,45.8,29.92,NNE,26,1.0,2.0,61,0.00,,,0.00,Wunderground v.1.15,2013-02-24 00:11:00,
2013-02-23 18:16:00,59.1,46.1,29.92,NNW,338,1.0,2.0,62,0.00,,,0.00,Wunderground v.1.15,2013-02-24 00:16:00,
2013-02-23 18:21:00,58.6,45.6,29.93,NNW,340,0.0,2.0,62,0.00,,,0.00,Wunderground v.1.15,2013-02-24 00:21:00,
2013-02-23 18:27:00,58.4,45.8,29.93,ENE,64,0.0,2.0,63,0.00,,,0.00,Wunderground v.1.15,2013-02-24 00:27:00,
2013-02-23 18:32:00,58.3,45.8,29.93,ENE,60,1.0,2.0,63,0.00,,,0.00,Wunderground v.1.15,2013-02-24 00:32:00,
2013-02-23 18:37:00,58.0,45.9,29.93,NE,39,0.0,2.0,64,0.00,,,0.00,Wunderground v.1.15,2013-02-24 00:37:00,
2013-02-23 18:43:00,57.7,45.6,29.93,NE,37,0.0,2.0,64,0.00,,,0.00,Wunderground v.1.15,2013-02-24 00:43:00,
2013-02-23 18:48:00,57.4,45.7,29.93,NE,39,0.0,2.0,65,0.00,,,0.00,Wunderground v.1.15,2013-02-24 00:48:00,
2013-02-23 18:53:00,57.1,45.8,29.93,NE,39,0.0,2.0,66,0.00,,,0.00,Wunderground v.1.15,2013-02-24 00:53:00,
2013-02-23 18:59:00,56.8,46.0,29.93,NE,39,0.0,2.0,67,0.00,,,0.00,Wunderground v.1.15,2013-02-24 00:59:00,
2013-02-23 19:04:00,56.6,45.8,29.93,North,8,0.0,2.0,67,0.00,,,0.00,Wunderground v.1.15,2013-02-24 01:04:00,
2013-02-23 19:09:00,56.5,45.7,29.94,NNE,18,1.0,2.0,67,0.00,,,0.00,Wunderground v.1.15,2013-02-24 01:09:00,
2013-02-23 19:15:00,56.7,45.9,29.94,NE,46,1.0,5.0,67,0.00,,,0.00,Wunderground v.1.15,2013-02-24 01:15:00,
2013-02-23 19:20:00,57.0,46.1,29.94,NE,34,2.0,3.0,67,0.00,,,0.00,Wunderground v.1.15,2013-02-24 01:20:00,
2013-02-23 19:25:00,57.0,46.1,29.95,NNE,30,3.0,4.0,67,0.00,,,0.00,Wunderground v.1.15,2013-02-24 01:25:00,
2013-02-23 19:31:00,56.8,46.0,29.95,ENE,71,3.0,3.0,67,0.00,,,0.00,Wunderground v.1.15,2013-02-24 01:31:00,
2013-02-23 19:36:00,56.5,46.1,29.95,ENE,64,3.0,4.0,68,0.00,,,0.00,Wunderground v.1.15,2013-02-24 01:36:00,
2013-02-23 19:41:00,56.1,46.1,29.95,ENE,72,3.0,4.0,69,0.00,,,0.00,Wunderground v.1.15,2013-02-24 01:41:00,
2013-02-23 19:47:00,55.7,45.7,29.96,ENE,68,3.0,3.0,69,0.00,,,0.00,Wunderground v.1.15,2013-02-24 01:47:00,
2013-02-23 19:53:00,55.4,45.4,29.95,NE,56,2.0,4.0,69,0.00,,,0.00,Wunderground v.1.15,2013-02-24 01:53:00,
2013-02-23 19:59:00,55.2,45.2,29.95,ENE,64,3.0,6.0,69,0.00,,,0.00,Wunderground v.1.15,2013-02-24 01:59:00,
2013-02-23 20:04:00,54.9,45.3,29.96,NE,54,3.0,6.0,70,0.00,,,0.00,Wunderground v.1.15,2013-02-24 02:04:00,
2013-02-23 20:10:00,54.6,45.0,29.95,ENE,60,3.0,3.0,70,0.00,,,0.00,Wunderground v.1.15,2013-02-24 02:10:00,
2013-02-23 20:15:00,54.4,44.8,29.95,NNE,19,3.0,5.0,70,0.00,,,0.00,Wunderground v.1.15,2013-02-24 02:15:00,
2013-02-23 20:20:00,54.1,44.9,29.96,NE,48,2.0,4.0,71,0.00,,,0.00,Wunderground v.1.15,2013-02-24 02:20:00,
2013-02-23 20:26:00,53.9,44.7,29.96,ENE,71,3.0,6.0,71,0.00,,,0.00,Wunderground v.1.15,2013-02-24 02:26:00,
2013-02-23 20:31:00,53.7,44.5,29.96,NE,56,3.0,4.0,71,0.00,,,0.00,Wunderground v.1.15,2013-02-24 02:31:00,
2013-02-23 20:37:00,53.4,43.9,29.96,ENE,72,3.0,7.0,70,0.00,,,0.00,Wunderground v.1.15,2013-02-24 02:37:00,
2013-02-23 20:42:00,53.3,44.1,29.96,NE,52,4.0,7.0,71,0.00,,,0.00,Wunderground v.1.15,2013-02-24 02:42:00,
2013-02-23 20:47:00,53.0,43.8,29.96,ENE,65,4.0,6.0,71,0.00,,,0.00,Wunderground v.1.15,2013-02-24 02:47:00,
2013-02-23 20:52:00,52.8,43.7,29.97,ENE,60,4.0,6.0,71,0.00,,,0.00,Wunderground v.1.15,2013-02-24 02:52:00,
2013-02-23 20:58:00,52.6,43.8,29.96,NE,56,5.0,5.0,72,0.00,,,0.00,Wunderground v.1.15,2013-02-24 02:58:00,
2013-02-23 21:03:00,52.4,43.6,29.97,ENE,65,4.0,5.0,72,0.00,,,0.00,Wunderground v.1.15,2013-02-24 03:03:00,
2013-02-23 21:09:00,52.1,43.7,29.97,NE,39,4.0,4.0,73,0.00,,,0.00,Wunderground v.1.15,2013-02-24 03:09:00,
2013-02-23 21:15:00,52.0,43.6,29.97,ENE,60,4.0,5.0,73,0.00,,,0.00,Wunderground v.1.15,2013-02-24 03:15:00,
2013-02-23 21:20:00,51.8,43.8,29.97,ENE,68,4.0,5.0,74,0.00,,,0.00,Wunderground v.1.15,2013-02-24 03:20:00,
2013-02-23 21:26:00,51.5,43.8,29.98,ENE,60,3.0,5.0,75,0.00,,,0.00,Wunderground v.1.15,2013-02-24 03:26:00,
2013-02-23 21:31:00,51.3,43.6,29.98,ENE,66,4.0,5.0,75,0.00,,,0.00,Wunderground v.1.15,2013-02-24 03:31:00,
2013-02-23 21:36:00,51.3,43.6,29.98,ENE,73,5.0,6.0,75,0.00,,,0.00,Wunderground v.1.15,2013-02-24 03:36:00,
2013-02-23 21:41:00,51.2,43.5,29.98,NE,56,5.0,6.0,75,0.00,,,0.00,Wunderground v.1.15,2013-02-24 03:41:00,
2013-02-23 21:47:00,50.9,43.3,29.98,ENE,73,5.0,5.0,75,0.00,,,0.00,Wunderground v.1.15,2013-02-24 03:47:00,
2013-02-23 21:52:00,50.7,43.1,29.98,ENE,77,4.0,6.0,75,0.00,,,0.00,Wunderground v.1.15,2013-02-24 03:52:00,
2013-02-23 21:58:00,50.6,43.0,29.98,ENE,72,5.0,5.0,75,0.00,,,0.00,Wunderground v.1.15,2013-02-24 03:58:00,
2013-02-23 22:03:00,50.4,42.8,29.98,ENE,64,4.0,5.0,75,0.00,,,0.00,Wunderground v.1.15,2013-02-24 04:03:00,
2013-02-23 22:09:00,50.2,42.6,29.98,ENE,68,3.0,4.0,75,0.00,,,0.00,Wunderground v.1.15,2013-02-24 04:09:00,
2013-02-23 22:15:00,50.0,42.4,29.98,ENE,68,3.0,4.0,75,0.00,,,0.00,Wunderground v.1.15,2013-02-24 04:15:00,
2013-02-23 22:20:00,49.9,42.3,29.98,ENE,68,3.0,4.0,75,0.00,,,0.00,Wunderground v.1.15,2013-02-24 04:20:00,
2013-02-23 22:26:00,49.7,42.1,29.98,ENE,63,3.0,4.0,75,0.00,,,0.00,Wunderground v.1.15,2013-02-24 04:26:00,
2013-02-23 22:31:00,49.6,42.0,29.98,ENE,69,3.0,4.0,75,0.00,,,0.00,Wunderground v.1.15,2013-02-24 04:31:00,
2013-02-23 22:36:00,49.5,42.2,29.98,ENE,69,3.0,3.0,76,0.00,,,0.00,Wunderground v.1.15,2013-02-24 04:36:00,
2013-02-23 22:42:00,49.3,42.1,29.98,ENE,68,3.0,3.0,76,0.00,,,0.00,Wunderground v.1.15,2013-02-24 04:42:00,
2013-02-23 22:47:00,49.1,41.9,29.98,ENE,72,2.0,2.0,76,0.00,,,0.00,Wunderground v.1.15,2013-02-24 04:47:00,
2013-02-23 22:53:00,49.0,41.8,29.98,East,79,2.0,2.0,76,0.00,,,0.00,Wunderground v.1.15,2013-02-24 04:53:00,
2013-02-23 22:58:00,48.8,41.9,29.98,ENE,71,1.0,2.0,77,0.00,,,0.00,Wunderground v.1.15,2013-02-24 04:58:00,
2013-02-23 23:00:00,48.7,41.8,29.98,ENE,71,1.0,2.0,77,0.00,,,0.00,Wunderground v.1.15,2013-02-24 05:00:00,
2013-02-23 23:01:00,48.6,41.7,29.98,ENE,71,1.0,2.0,77,0.00,,,0.00,Wunderground v.1.15,2013-02-24 05:01:00,
2013-02-23 23:03:00,48.5,41.6,29.98,ENE,71,1.0,2.0,77,0.00,,,0.00,Wunderground v.1.15,2013-02-24 05:03:00,
2013-02-23 23:04:00,48.5,42.0,29.98,ENE,71,0.0,2.0,78,0.00,,,0.00,Wunderground v.1.15,2013-02-24 05:04:00,
2013-02-23 23:09:00,48.1,41.6,29.98,East,82,0.0,2.0,78,0.00,,,0.00,Wunderground v.1.15,2013-02-24 05:09:00,
2013-02-23 23:14:00,47.8,41.6,29.98,East,89,0.0,2.0,79,0.00,,,0.00,Wunderground v.1.15,2013-02-24 05:14:00,
2013-02-23 23:20:00,47.3,41.1,29.98,East,89,0.0,2.0,79,0.00,,,0.00,Wunderground v.1.15,2013-02-24 05:20:00,
2013-02-23 23:25:00,47.0,41.1,29.98,East,89,0.0,2.0,80,0.00,,,0.00,Wunderground v.1.15,2013-02-24 05:25:00,
2013-02-23 23:31:00,46.7,41.2,29.98,East,89,0.0,2.0,81,0.00,,,0.00,Wunderground v.1.15,2013-02-24 05:31:00,
2013-02-23 23:36:00,46.3,40.8,29.98,East,89,0.0,2.0,81,0.00,,,0.00,Wunderground v.1.15,2013-02-24 05:36:00,
2013-02-23 23:42:00,45.9,40.7,29.98,East,89,0.0,2.0,82,0.00,,,0.00,Wunderground v.1.15,2013-02-24 05:42:00,
2013-02-23 23:47:00,45.7,40.8,29.98,East,89,0.0,2.0,83,0.00,,,0.00,Wunderground v.1.15,2013-02-24 05:47:00,
2013-02-23 23:53:00,45.6,41.0,29.98,NE,53,0.0,2.0,84,0.00,,,0.00,Wunderground v.1.15,2013-02-24 05:53:00,
2013-02-23 23:59:00,45.7,41.1,29.98,NE,51,0.0,2.0,84,0.00,,,0.00,Wunderground v.1.15,2013-02-24 05:59:00,